Time,TemperatureF,DewpointF,PressureIn,WindDirection,WindDirectionDegrees,WindSpeedMPH,WindSpeedGustMPH,Humidity,HourlyPrecipIn,Conditions,Clouds,dailyrainin,SoftwareType,DateUTC
2013-01-15 00:01:00,22.4,12.1,30.31,NNE,16,0.0,0.0,64,0.00,,,0.00,VWS V13.01,2013-01-15 06:01:00,
2013-01-15 00:06:00,22.3,12.3,30.31,NNE,16,0.0,0.0,65,0.00,,,0.00,VWS V13.01,2013-01-15 06:06:00,
2013-01-15 00:11:00,22.3,12.3,30.31,NNE,16,0.0,0.0,65,0.00,,,0.00,VWS V13.01,2013-01-15 06:11:00,
2013-01-15 00:16:00,22.1,13.8,30.31,NNE,16,0.0,0.0,70,0.00,,,0.00,VWS V13.01,2013-01-15 06:16:00,
2013-01-15 00:21:00,22.1,13.8,30.31,NNE,16,0.0,0.0,70,0.00,,,0.00,VWS V13.01,2013-01-15 06:21:00,
2013-01-15 00:26:00,21.9,14.0,30.31,NNE,16,0.0,0.0,71,0.00,,,0.00,VWS V13.01,2013-01-15 06:26:00,
2013-01-15 00:31:00,21.7,13.5,30.28,NNE,16,0.0,0.0,70,0.00,,,0.00,VWS V13.01,2013-01-15 06:31:00,
2013-01-15 00:36:00,21.5,13.3,30.28,NNE,16,0.0,0.0,70,0.00,,,0.00,VWS V13.01,2013-01-15 06:36:00,
2013-01-15 00:40:00,21.4,13.1,30.28,NNE,16,0.0,0.0,70,0.00,,,0.00,VWS V13.01,2013-01-15 06:40:00,
2013-01-15 00:45:00,21.2,12.9,30.28,NNE,16,0.0,0.0,70,0.00,,,0.00,VWS V13.01,2013-01-15 06:45:00,
2013-01-15 00:50:00,21.4,12.8,30.28,NNE,16,0.0,0.0,69,0.00,,,0.00,VWS V13.01,2013-01-15 06:50:00,
2013-01-15 00:55:00,21.4,13.1,30.28,NNE,16,0.0,0.0,70,0.00,,,0.00,VWS V13.01,2013-01-15 06:55:00,
2013-01-15 01:00:00,21.4,13.8,30.28,NNE,16,0.0,0.0,72,0.00,,,0.00,VWS V13.01,2013-01-15 07:00:00,
2013-01-15 01:05:00,21.2,13.3,30.28,NNE,16,0.0,0.0,71,0.00,,,0.00,VWS V13.01,2013-01-15 07:05:00,
2013-01-15 01:10:00,21.0,13.1,30.28,NNE,16,0.0,0.0,71,0.00,,,0.00,VWS V13.01,2013-01-15 07:10:00,
2013-01-15 01:15:00,20.8,12.9,30.28,NNE,16,0.0,0.0,71,0.00,,,0.00,VWS V13.01,2013-01-15 07:15:00,
2013-01-15 01:20:00,20.6,13.1,30.28,NNE,16,0.0,0.0,72,0.00,,,0.00,VWS V13.01,2013-01-15 07:20:00,
2013-01-15 01:25:00,20.5,12.9,30.28,NNE,16,0.0,0.0,72,0.00,,,0.00,VWS V13.01,2013-01-15 07:25:00,
2013-01-15 01:34:00,20.5,12.6,30.28,NNE,16,0.0,0.0,71,0.00,,,0.00,VWS V13.01,2013-01-15 07:34:00,
2013-01-15 01:39:00,20.3,12.7,30.28,NNE,16,0.0,0.0,72,0.00,,,0.00,VWS V13.01,2013-01-15 07:39:00,
2013-01-15 01:44:00,20.3,13.6,30.28,NNE,16,0.0,0.0,75,0.00,,,0.00,VWS V13.01,2013-01-15 07:44:00,
2013-01-15 01:49:00,20.1,13.2,30.28,NNE,16,0.0,0.0,74,0.00,,,0.00,VWS V13.01,2013-01-15 07:49:00,
2013-01-15 01:54:00,19.9,13.3,30.28,NNE,16,0.0,0.0,75,0.00,,,0.00,VWS V13.01,2013-01-15 07:54:00,
2013-01-15 01:59:00,19.9,13.3,30.25,NNE,16,0.0,0.0,75,0.00,,,0.00,VWS V13.01,2013-01-15 07:59:00,
2013-01-15 02:04:00,19.7,13.4,30.25,NNE,16,0.0,0.0,76,0.00,,,0.00,VWS V13.01,2013-01-15 08:04:00,
2013-01-15 02:09:00,19.6,13.5,30.25,NNE,16,0.0,0.0,77,0.00,,,0.00,VWS V13.01,2013-01-15 08:09:00,
2013-01-15 02:14:00,19.6,13.8,30.25,NNE,16,0.0,0.0,78,0.00,,,0.00,VWS V13.01,2013-01-15 08:14:00,
2013-01-15 02:19:00,19.4,13.9,30.25,NNE,16,0.0,0.0,79,0.00,,,0.00,VWS V13.01,2013-01-15 08:19:00,
2013-01-15 02:24:00,19.4,14.2,30.25,NNE,16,0.0,0.0,80,0.00,,,0.00,VWS V13.01,2013-01-15 08:24:00,
2013-01-15 02:29:00,19.2,14.1,30.25,NNE,16,0.0,0.0,80,0.00,,,0.00,VWS V13.01,2013-01-15 08:29:00,
2013-01-15 02:34:00,19.2,14.1,30.25,NNE,16,0.0,0.0,80,0.00,,,0.00,VWS V13.01,2013-01-15 08:34:00,
2013-01-15 02:39:00,18.8,13.7,30.25,NNE,16,0.0,0.0,80,0.00,,,0.00,VWS V13.01,2013-01-15 08:39:00,
2013-01-15 02:44:00,18.7,13.2,30.25,NNE,16,0.0,0.0,79,0.00,,,0.00,VWS V13.01,2013-01-15 08:44:00,
2013-01-15 02:49:00,18.7,13.2,30.25,NNE,16,0.0,0.0,79,0.00,,,0.00,VWS V13.01,2013-01-15 08:49:00,
2013-01-15 02:54:00,18.7,13.2,30.25,NNE,16,0.0,0.0,79,0.00,,,0.00,VWS V13.01,2013-01-15 08:54:00,
2013-01-15 02:59:00,18.7,13.2,30.25,NNE,17,0.0,0.0,79,0.00,,,0.00,VWS V13.01,2013-01-15 08:59:00,
2013-01-15 03:04:00,18.7,13.5,30.25,SSE,159,0.0,0.0,80,0.00,,,0.00,VWS V13.01,2013-01-15 09:04:00,
2013-01-15 03:09:00,19.0,14.2,30.25,SSE,168,0.0,0.0,81,0.00,,,0.00,VWS V13.01,2013-01-15 09:09:00,
2013-01-15 03:14:00,19.2,14.3,30.25,SSE,168,0.0,0.0,81,0.00,,,0.00,VWS V13.01,2013-01-15 09:14:00,
2013-01-15 03:19:00,19.2,14.1,30.25,SSE,168,0.0,0.0,80,0.00,,,0.00,VWS V13.01,2013-01-15 09:19:00,
2013-01-15 03:24:00,19.0,14.2,30.25,WNW,287,0.0,0.0,81,0.00,,,0.00,VWS V13.01,2013-01-15 09:24:00,
2013-01-15 03:29:00,19.0,14.2,30.22,WNW,287,0.0,0.0,81,0.00,,,0.00,VWS V13.01,2013-01-15 09:29:00,
2013-01-15 03:34:00,18.8,14.3,30.22,WNW,287,0.0,0.0,82,0.00,,,0.00,VWS V13.01,2013-01-15 09:34:00,
2013-01-15 03:39:00,18.8,14.5,30.22,WNW,290,0.0,0.0,83,0.00,,,0.00,VWS V13.01,2013-01-15 09:39:00,
2013-01-15 03:44:00,18.7,14.4,30.22,WNW,290,0.0,0.0,83,0.00,,,0.00,VWS V13.01,2013-01-15 09:44:00,
2013-01-15 03:49:00,18.7,14.4,30.22,WNW,290,0.0,0.0,83,0.00,,,0.00,VWS V13.01,2013-01-15 09:49:00,
2013-01-15 03:54:00,18.7,14.4,30.22,WNW,290,0.0,0.0,83,0.00,,,0.00,VWS V13.01,2013-01-15 09:54:00,
2013-01-15 03:59:00,18.7,14.1,30.25,WNW,290,0.0,0.0,82,0.00,,,0.00,VWS V13.01,2013-01-15 09:59:00,
2013-01-15 04:04:00,18.7,14.4,30.25,WNW,290,0.0,0.0,83,0.00,,,0.00,VWS V13.01,2013-01-15 10:04:00,
2013-01-15 04:09:00,18.5,14.2,30.25,WNW,290,0.0,0.0,83,0.00,,,0.00,VWS V13.01,2013-01-15 10:09:00,
2013-01-15 04:14:00,18.5,14.2,30.25,WNW,290,0.0,0.0,83,0.00,,,0.00,VWS V13.01,2013-01-15 10:14:00,
2013-01-15 04:19:00,18.5,14.2,30.25,WNW,290,0.0,0.0,83,0.00,,,0.00,VWS V13.01,2013-01-15 10:19:00,
2013-01-15 04:24:00,18.5,14.5,30.25,WNW,290,0.0,0.0,84,0.00,,,0.00,VWS V13.01,2013-01-15 10:24:00,
2013-01-15 04:29:00,18.7,14.9,30.22,WNW,290,0.0,0.0,85,0.00,,,0.00,VWS V13.01,2013-01-15 10:29:00,
2013-01-15 04:34:00,18.5,15.0,30.22,WNW,290,0.0,0.0,86,0.00,,,0.00,VWS V13.01,2013-01-15 10:34:00,
2013-01-15 04:39:00,18.5,14.7,30.22,WNW,290,0.0,0.0,85,0.00,,,0.00,VWS V13.01,2013-01-15 10:39:00,
2013-01-15 04:44:00,18.3,14.6,30.25,WNW,290,0.0,0.0,85,0.00,,,0.00,VWS V13.01,2013-01-15 10:44:00,
2013-01-15 04:49:00,18.3,15.1,30.25,WNW,290,0.0,0.0,87,0.00,,,0.00,VWS V13.01,2013-01-15 10:49:00,
2013-01-15 04:54:00,18.3,15.6,30.25,WNW,292,0.0,0.0,89,0.00,,,0.00,VWS V13.01,2013-01-15 10:54:00,
2013-01-15 04:59:00,18.5,15.8,30.25,NW,318,0.0,0.0,89,0.00,,,0.00,VWS V13.01,2013-01-15 10:59:00,
2013-01-15 05:04:00,18.5,15.8,30.25,NW,318,0.0,0.0,89,0.00,,,0.00,VWS V13.01,2013-01-15 11:04:00,
2013-01-15 05:09:00,18.5,15.3,30.25,NW,318,0.0,0.0,87,0.00,,,0.00,VWS V13.01,2013-01-15 11:09:00,
2013-01-15 05:14:00,18.5,15.3,30.25,NW,319,0.0,0.0,87,0.00,,,0.00,VWS V13.01,2013-01-15 11:14:00,
2013-01-15 05:19:00,18.5,15.3,30.25,NW,319,0.0,0.0,87,0.00,,,0.00,VWS V13.01,2013-01-15 11:19:00,
2013-01-15 05:24:00,18.3,14.8,30.25,NW,319,0.0,0.0,86,0.00,,,0.00,VWS V13.01,2013-01-15 11:24:00,
2013-01-15 05:29:00,18.3,14.8,30.25,NW,320,0.0,0.0,86,0.00,,,0.00,VWS V13.01,2013-01-15 11:29:00,
2013-01-15 05:34:00,18.3,15.1,30.25,NW,320,0.0,0.0,87,0.00,,,0.00,VWS V13.01,2013-01-15 11:34:00,
2013-01-15 05:39:00,18.3,15.4,30.25,NW,320,0.0,0.0,88,0.00,,,0.00,VWS V13.01,2013-01-15 11:39:00,
2013-01-15 05:44:00,18.3,15.6,30.25,NW,320,0.0,0.0,89,0.00,,,0.00,VWS V13.01,2013-01-15 11:44:00,
2013-01-15 05:49:00,18.3,15.6,30.25,NW,320,0.0,0.0,89,0.00,,,0.00,VWS V13.01,2013-01-15 11:49:00,
2013-01-15 05:54:00,18.3,15.4,30.25,NW,320,0.0,0.0,88,0.00,,,0.00,VWS V13.01,2013-01-15 11:54:00,
2013-01-15 05:59:00,18.3,15.4,30.25,NW,320,0.0,0.0,88,0.00,,,0.00,VWS V13.01,2013-01-15 11:59:00,
2013-01-15 06:04:00,18.5,15.5,30.25,NW,317,0.0,0.0,88,0.00,,,0.00,VWS V13.01,2013-01-15 12:04:00,
2013-01-15 06:09:00,18.5,15.3,30.25,South,179,0.0,0.0,87,0.00,,,0.00,VWS V13.01,2013-01-15 12:09:00,
2013-01-15 06:14:00,18.7,15.4,30.25,South,179,0.0,0.0,87,0.00,,,0.00,VWS V13.01,2013-01-15 12:14:00,
2013-01-15 06:19:00,18.7,15.4,30.25,South,179,0.0,0.0,87,0.00,,,0.00,VWS V13.01,2013-01-15 12:19:00,
2013-01-15 06:24:00,18.7,15.4,30.25,South,179,0.0,0.0,87,0.00,,,0.00,VWS V13.01,2013-01-15 12:24:00,
2013-01-15 06:29:00,18.8,15.9,30.25,SE,134,0.0,0.0,88,0.00,,,0.00,VWS V13.01,2013-01-15 12:29:00,
2013-01-15 06:34:00,18.8,15.9,30.25,SE,134,0.0,0.0,88,0.00,,,0.00,VWS V13.01,2013-01-15 12:34:00,
2013-01-15 06:39:00,19.2,16.5,30.25,SE,134,0.0,0.0,89,0.00,,,0.00,VWS V13.01,2013-01-15 12:39:00,
2013-01-15 06:44:00,19.2,16.5,30.22,North,7,2.7,2.7,89,0.00,,,0.00,VWS V13.01,2013-01-15 12:44:00,
2013-01-15 06:49:00,19.4,16.1,30.22,North,7,0.0,0.0,87,0.00,,,0.00,VWS V13.01,2013-01-15 12:49:00,
2013-01-15 06:54:00,19.4,16.1,30.22,North,7,0.0,0.0,87,0.00,,,0.00,VWS V13.01,2013-01-15 12:54:00,
2013-01-15 06:59:00,19.6,16.3,30.22,North,7,0.0,0.0,87,0.00,,,0.00,VWS V13.01,2013-01-15 12:59:00,
2013-01-15 07:04:00,19.7,16.2,30.25,SSE,165,4.5,4.5,86,0.00,,,0.00,VWS V13.01,2013-01-15 13:04:00,
2013-01-15 07:09:00,19.9,16.4,30.25,SSE,153,0.0,0.0,86,0.00,,,0.00,VWS V13.01,2013-01-15 13:09:00,
2013-01-15 07:14:00,19.9,16.4,30.25,SSE,153,0.0,0.0,86,0.00,,,0.00,VWS V13.01,2013-01-15 13:14:00,
2013-01-15 07:18:00,20.1,16.6,30.25,SSE,153,0.0,0.0,86,0.00,,,0.00,VWS V13.01,2013-01-15 13:18:00,
2013-01-15 07:23:00,20.3,16.8,30.25,NE,37,2.2,2.7,86,0.00,,,0.00,VWS V13.01,2013-01-15 13:23:00,
2013-01-15 07:28:00,20.5,16.7,30.22,NNE,29,3.6,3.6,85,0.00,,,0.00,VWS V13.01,2013-01-15 13:28:00,
2013-01-15 07:33:00,20.8,17.3,30.22,North,358,3.6,4.0,86,0.00,,,0.00,VWS V13.01,2013-01-15 13:33:00,
2013-01-15 07:38:00,20.8,15.6,30.22,NE,40,5.8,5.8,80,0.00,,,0.00,VWS V13.01,2013-01-15 13:38:00,
2013-01-15 07:43:00,21.4,15.6,30.19,North,6,3.6,5.8,78,0.00,,,0.00,VWS V13.01,2013-01-15 13:43:00,
2013-01-15 07:48:00,22.1,15.7,30.19,ENE,63,5.4,5.8,76,0.00,,,0.00,VWS V13.01,2013-01-15 13:48:00,
2013-01-15 07:53:00,22.3,15.6,30.19,ESE,108,0.0,4.0,75,0.00,,,0.00,VWS V13.01,2013-01-15 13:53:00,
2013-01-15 07:58:00,22.4,15.7,30.16,ENE,69,0.0,0.0,75,0.00,,,0.00,VWS V13.01,2013-01-15 13:58:00,
2013-01-15 08:03:00,22.6,15.9,30.16,East,82,0.0,0.0,75,0.00,,,0.00,VWS V13.01,2013-01-15 14:03:00,
2013-01-15 08:08:00,22.8,15.8,30.16,ESE,111,0.0,0.0,74,0.00,,,0.00,VWS V13.01,2013-01-15 14:08:00,
2013-01-15 08:13:00,23.3,16.0,30.16,South,186,0.0,0.0,73,0.00,,,0.00,VWS V13.01,2013-01-15 14:13:00,
2013-01-15 08:18:00,23.5,15.2,30.16,South,183,4.9,4.9,70,0.00,,,0.00,VWS V13.01,2013-01-15 14:18:00,
2013-01-15 08:23:00,23.7,14.4,30.16,South,181,4.0,4.0,67,0.00,,,0.00,VWS V13.01,2013-01-15 14:23:00,
2013-01-15 08:28:00,24.1,15.0,30.19,SSE,167,5.4,5.4,68,0.00,,,0.00,VWS V13.01,2013-01-15 14:28:00,
2013-01-15 08:33:00,24.1,15.0,30.19,SSW,207,4.9,4.9,68,0.00,,,0.00,VWS V13.01,2013-01-15 14:33:00,
2013-01-15 08:38:00,24.2,16.2,30.19,SW,225,4.9,5.4,71,0.00,,,0.00,VWS V13.01,2013-01-15 14:38:00,
2013-01-15 08:43:00,24.1,15.7,30.25,South,189,5.8,6.7,70,0.00,,,0.00,VWS V13.01,2013-01-15 14:43:00,
2013-01-15 08:48:00,24.1,15.7,30.25,SSW,193,5.8,8.1,70,0.00,,,0.00,VWS V13.01,2013-01-15 14:48:00,
2013-01-15 08:53:00,24.2,16.2,30.25,SSW,195,4.9,5.8,71,0.00,,,0.00,VWS V13.01,2013-01-15 14:53:00,
2013-01-15 08:58:00,24.4,15.7,30.25,SW,233,5.4,5.8,69,0.00,,,0.00,VWS V13.01,2013-01-15 14:58:00,
2013-01-15 09:03:00,24.4,15.1,30.31,WSW,241,6.7,7.6,67,0.00,,,0.00,VWS V13.01,2013-01-15 15:03:00,
2013-01-15 09:08:00,24.6,15.2,30.31,SW,230,4.0,4.0,67,0.00,,,0.00,VWS V13.01,2013-01-15 15:08:00,
2013-01-15 09:13:00,24.8,15.7,30.31,SW,226,3.6,4.0,68,0.00,,,0.00,VWS V13.01,2013-01-15 15:13:00,
2013-01-15 09:18:00,24.8,15.4,30.31,WSW,241,4.9,6.3,67,0.00,,,0.00,VWS V13.01,2013-01-15 15:18:00,
2013-01-15 09:23:00,24.8,15.4,30.31,South,191,4.9,4.9,67,0.00,,,0.00,VWS V13.01,2013-01-15 15:23:00,
2013-01-15 09:28:00,25.0,16.2,30.34,South,183,3.1,3.6,69,0.00,,,0.00,VWS V13.01,2013-01-15 15:28:00,
2013-01-15 09:33:00,25.0,16.2,30.34,SW,227,2.2,2.7,69,0.00,,,0.00,VWS V13.01,2013-01-15 15:33:00,
2013-01-15 09:38:00,25.0,16.2,30.34,SW,222,2.7,4.0,69,0.00,,,0.00,VWS V13.01,2013-01-15 15:38:00,
2013-01-15 09:43:00,25.1,16.8,30.34,WSW,241,2.2,3.6,70,0.00,,,0.00,VWS V13.01,2013-01-15 15:43:00,
2013-01-15 09:48:00,25.1,16.4,30.34,SW,235,0.0,2.2,69,0.00,,,0.00,VWS V13.01,2013-01-15 15:48:00,
2013-01-15 09:53:00,25.3,17.2,30.34,NW,313,0.0,2.2,71,0.00,,,0.00,VWS V13.01,2013-01-15 15:53:00,
2013-01-15 09:58:00,25.3,17.6,30.31,NNW,347,0.0,2.2,72,0.00,,,0.00,VWS V13.01,2013-01-15 15:58:00,
2013-01-15 10:03:00,25.5,18.7,30.31,North,356,0.0,0.0,75,0.00,,,0.00,VWS V13.01,2013-01-15 16:03:00,
2013-01-15 10:08:00,24.8,19.2,30.31,North,7,3.6,3.6,79,0.00,,,0.00,VWS V13.01,2013-01-15 16:08:00,
2013-01-15 10:13:00,24.2,20.1,30.31,NE,43,3.6,3.6,84,0.00,,,0.00,VWS V13.01,2013-01-15 16:13:00,
2013-01-15 10:18:00,23.9,20.6,30.28,NE,47,2.7,3.1,87,0.00,,,0.00,VWS V13.01,2013-01-15 16:18:00,
2013-01-15 10:23:00,23.5,20.8,30.28,NE,42,3.1,3.1,89,0.00,,,0.00,VWS V13.01,2013-01-15 16:23:00,
2013-01-15 10:28:00,23.5,21.3,30.28,NE,41,4.9,5.4,91,0.00,,,0.00,VWS V13.01,2013-01-15 16:28:00,
2013-01-15 10:33:00,23.3,21.4,30.28,NNE,31,3.6,3.6,92,0.00,,,0.00,VWS V13.01,2013-01-15 16:33:00,
2013-01-15 10:38:00,23.3,21.4,30.28,ENE,62,2.7,3.1,92,0.00,,,0.00,VWS V13.01,2013-01-15 16:38:00,
2013-01-15 10:43:00,23.3,21.6,30.28,NE,54,3.1,3.6,93,0.00,,,0.00,VWS V13.01,2013-01-15 16:43:00,
2013-01-15 10:48:00,23.3,21.6,30.28,North,7,2.7,2.7,93,0.00,,,0.00,VWS V13.01,2013-01-15 16:48:00,
2013-01-15 10:53:00,23.5,22.0,30.28,ENE,68,3.6,3.6,94,0.00,,,0.00,VWS V13.01,2013-01-15 16:53:00,
2013-01-15 10:58:00,23.5,22.0,30.28,North,6,3.1,3.1,94,0.00,,,0.00,VWS V13.01,2013-01-15 16:58:00,
2013-01-15 11:03:00,23.7,22.2,30.28,NNE,31,3.1,3.1,94,0.00,,,0.00,VWS V13.01,2013-01-15 17:03:00,
2013-01-15 11:08:00,23.9,22.7,30.28,NE,38,4.0,4.0,95,0.00,,,0.00,VWS V13.01,2013-01-15 17:08:00,
2013-01-15 11:13:00,23.9,22.7,30.25,NE,54,4.0,5.8,95,0.00,,,0.00,VWS V13.01,2013-01-15 17:13:00,
2013-01-15 11:18:00,24.1,22.8,30.25,NNE,25,3.1,3.1,95,0.00,,,0.00,VWS V13.01,2013-01-15 17:18:00,
2013-01-15 11:23:00,24.1,22.8,30.25,NE,34,2.7,3.1,95,0.00,,,0.00,VWS V13.01,2013-01-15 17:23:00,
2013-01-15 11:28:00,24.2,23.0,30.25,NE,44,2.7,2.7,95,0.00,,,0.00,VWS V13.01,2013-01-15 17:28:00,
2013-01-15 11:33:00,24.4,23.2,30.25,NE,38,4.0,4.0,95,0.00,,,0.00,VWS V13.01,2013-01-15 17:33:00,
2013-01-15 11:38:00,24.6,23.4,30.25,NE,44,0.0,0.0,95,0.00,,,0.00,VWS V13.01,2013-01-15 17:38:00,
2013-01-15 11:43:00,24.8,23.3,30.25,ENE,58,0.0,0.0,94,0.00,,,0.00,VWS V13.01,2013-01-15 17:43:00,
2013-01-15 11:48:00,25.0,23.5,30.25,NNE,24,2.7,2.7,94,0.00,,,0.00,VWS V13.01,2013-01-15 17:48:00,
2013-01-15 11:53:00,25.1,23.7,30.25,NE,34,0.0,0.0,94,0.00,,,0.00,VWS V13.01,2013-01-15 17:53:00,
2013-01-15 11:58:00,25.5,24.0,30.22,NE,35,0.0,0.0,94,0.00,,,0.00,VWS V13.01,2013-01-15 17:58:00,
2013-01-15 12:03:00,25.5,24.0,30.22,NE,35,0.0,0.0,94,0.00,,,0.00,VWS V13.01,2013-01-15 18:03:00,
2013-01-15 12:08:00,25.5,23.2,30.22,NNE,21,0.0,0.0,91,0.00,,,0.00,VWS V13.01,2013-01-15 18:08:00,
2013-01-15 12:13:00,25.9,23.6,30.22,NNE,21,0.0,0.0,91,0.00,,,0.00,VWS V13.01,2013-01-15 18:13:00,
2013-01-15 12:18:00,25.9,23.3,30.22,SSE,150,2.2,2.2,90,0.00,,,0.00,VWS V13.01,2013-01-15 18:18:00,
2013-01-15 12:23:00,25.9,23.1,30.22,ENE,78,2.7,2.7,89,0.00,,,0.00,VWS V13.01,2013-01-15 18:23:00,
2013-01-15 12:28:00,25.7,22.6,30.22,ESE,113,5.4,5.4,88,0.00,,,0.00,VWS V13.01,2013-01-15 18:28:00,
2013-01-15 12:33:00,25.5,22.2,30.22,East,86,3.6,3.6,87,0.00,,,0.00,VWS V13.01,2013-01-15 18:33:00,
2013-01-15 12:38:00,25.5,21.9,30.22,East,87,4.0,4.0,86,0.00,,,0.00,VWS V13.01,2013-01-15 18:38:00,
2013-01-15 12:43:00,25.5,21.6,30.22,ESE,112,2.2,4.0,85,0.00,,,0.00,VWS V13.01,2013-01-15 18:43:00,
2013-01-15 12:48:00,25.7,21.8,30.22,East,96,3.6,3.6,85,0.00,,,0.00,VWS V13.01,2013-01-15 18:48:00,
2013-01-15 12:53:00,25.7,21.8,30.22,East,83,4.0,4.0,85,0.00,,,0.00,VWS V13.01,2013-01-15 18:53:00,
2013-01-15 12:58:00,25.7,21.8,30.22,NE,41,3.1,3.6,85,0.00,,,0.00,VWS V13.01,2013-01-15 18:58:00,
2013-01-15 13:03:00,25.9,22.3,30.22,East,92,3.1,4.9,86,0.00,,,0.00,VWS V13.01,2013-01-15 19:03:00,
2013-01-15 13:08:00,25.9,22.3,30.22,ESE,120,3.6,5.4,86,0.00,,,0.00,VWS V13.01,2013-01-15 19:08:00,
2013-01-15 13:13:00,26.0,22.2,30.22,ENE,69,2.7,3.1,85,0.00,,,0.00,VWS V13.01,2013-01-15 19:13:00,
2013-01-15 13:18:00,26.6,22.7,30.19,ENE,63,2.7,2.7,85,0.00,,,0.00,VWS V13.01,2013-01-15 19:18:00,
2013-01-15 13:23:00,26.8,22.9,30.19,ENE,75,3.1,4.0,85,0.00,,,0.00,VWS V13.01,2013-01-15 19:23:00,
2013-01-15 13:28:00,26.8,22.3,30.19,NE,38,2.7,3.1,83,0.00,,,0.00,VWS V13.01,2013-01-15 19:28:00,
2013-01-15 13:33:00,26.8,22.0,30.19,ESE,119,3.1,4.0,82,0.00,,,0.00,VWS V13.01,2013-01-15 19:33:00,
2013-01-15 13:38:00,26.9,21.9,30.19,ENE,65,0.0,2.2,81,0.00,,,0.00,VWS V13.01,2013-01-15 19:38:00,
2013-01-15 13:43:00,27.3,22.2,30.19,NE,42,0.0,0.0,81,0.00,,,0.00,VWS V13.01,2013-01-15 19:43:00,
2013-01-15 13:48:00,27.7,22.0,30.19,NE,42,3.1,3.6,79,0.00,,,0.00,VWS V13.01,2013-01-15 19:48:00,
2013-01-15 13:53:00,28.0,22.7,30.19,SSE,150,3.1,3.1,80,0.00,,,0.00,VWS V13.01,2013-01-15 19:53:00,
2013-01-15 13:58:00,28.6,22.6,30.19,East,86,4.0,4.0,78,0.00,,,0.00,VWS V13.01,2013-01-15 19:58:00,
2013-01-15 14:02:00,28.9,22.0,30.16,ENE,60,4.0,4.9,75,0.00,,,0.00,VWS V13.01,2013-01-15 20:02:00,
2013-01-15 14:07:00,29.1,21.9,30.16,ENE,69,3.6,5.8,74,0.00,,,0.00,VWS V13.01,2013-01-15 20:07:00,
2013-01-15 14:12:00,29.1,21.9,30.16,East,101,3.1,3.6,74,0.00,,,0.00,VWS V13.01,2013-01-15 20:12:00,
2013-01-15 14:17:00,28.9,21.0,30.16,SE,126,3.6,5.4,72,0.00,,,0.00,VWS V13.01,2013-01-15 20:17:00,
2013-01-15 14:22:00,28.9,21.4,30.16,SE,140,4.0,4.0,73,0.00,,,0.00,VWS V13.01,2013-01-15 20:22:00,
2013-01-15 14:27:00,29.1,21.5,30.16,East,80,2.2,3.6,73,0.00,,,0.00,VWS V13.01,2013-01-15 20:27:00,
2013-01-15 14:32:00,29.5,21.9,30.16,East,94,2.2,4.0,73,0.00,,,0.00,VWS V13.01,2013-01-15 20:32:00,
2013-01-15 14:37:00,29.8,21.9,30.16,NNE,31,4.0,4.0,72,0.00,,,0.00,VWS V13.01,2013-01-15 20:37:00,
2013-01-15 14:42:00,29.6,21.4,30.16,East,94,2.7,2.7,71,0.00,,,0.00,VWS V13.01,2013-01-15 20:42:00,
2013-01-15 14:47:00,29.8,21.6,30.19,SSE,162,3.1,3.1,71,0.00,,,0.00,VWS V13.01,2013-01-15 20:47:00,
2013-01-15 14:52:00,29.6,21.4,30.19,South,171,0.0,2.2,71,0.00,,,0.00,VWS V13.01,2013-01-15 20:52:00,
2013-01-15 14:57:00,30.0,22.1,30.19,SE,135,2.7,2.7,72,0.00,,,0.00,VWS V13.01,2013-01-15 20:57:00,
2013-01-15 15:02:00,30.0,21.8,30.19,South,169,3.1,3.1,71,0.00,,,0.00,VWS V13.01,2013-01-15 21:02:00,
2013-01-15 15:07:00,29.8,21.6,30.19,SSW,193,4.0,4.0,71,0.00,,,0.00,VWS V13.01,2013-01-15 21:07:00,
2013-01-15 15:12:00,29.8,21.6,30.19,SSE,147,4.9,5.4,71,0.00,,,0.00,VWS V13.01,2013-01-15 21:12:00,
2013-01-15 15:17:00,29.8,21.9,30.19,South,184,2.7,2.7,72,0.00,,,0.00,VWS V13.01,2013-01-15 21:17:00,
2013-01-15 15:22:00,29.8,22.2,30.19,South,186,3.6,4.0,73,0.00,,,0.00,VWS V13.01,2013-01-15 21:22:00,
2013-01-15 15:27:00,29.8,22.2,30.19,South,185,0.0,3.1,73,0.00,,,0.00,VWS V13.01,2013-01-15 21:27:00,
2013-01-15 15:32:00,29.6,22.1,30.19,SSW,196,3.1,3.1,73,0.00,,,0.00,VWS V13.01,2013-01-15 21:32:00,
2013-01-15 15:37:00,29.6,22.1,30.19,WSW,244,3.6,4.0,73,0.00,,,0.00,VWS V13.01,2013-01-15 21:37:00,
2013-01-15 15:42:00,29.6,22.1,30.19,SW,226,2.7,2.7,73,0.00,,,0.00,VWS V13.01,2013-01-15 21:42:00,
2013-01-15 15:47:00,29.6,22.1,30.22,South,189,3.1,3.1,73,0.00,,,0.00,VWS V13.01,2013-01-15 21:47:00,
2013-01-15 15:52:00,29.5,21.9,30.22,SW,222,3.6,4.0,73,0.00,,,0.00,VWS V13.01,2013-01-15 21:52:00,
2013-01-15 15:57:00,29.5,21.9,30.22,WSW,238,3.1,3.6,73,0.00,,,0.00,VWS V13.01,2013-01-15 21:57:00,
2013-01-15 16:02:00,29.5,22.2,30.22,SW,235,5.4,6.3,74,0.00,,,0.00,VWS V13.01,2013-01-15 22:02:00,
2013-01-15 16:07:00,29.3,22.0,30.22,WSW,250,4.9,5.8,74,0.00,,,0.00,VWS V13.01,2013-01-15 22:07:00,
2013-01-15 16:12:00,29.3,22.7,30.22,WSW,239,3.1,3.6,76,0.00,,,0.00,VWS V13.01,2013-01-15 22:12:00,
2013-01-15 16:17:00,29.3,22.4,30.22,SSW,207,2.7,3.1,75,0.00,,,0.00,VWS V13.01,2013-01-15 22:17:00,
2013-01-15 16:22:00,29.1,22.2,30.22,SW,223,3.1,4.0,75,0.00,,,0.00,VWS V13.01,2013-01-15 22:22:00,
2013-01-15 16:27:00,29.1,22.2,30.22,WSW,241,4.0,4.0,75,0.00,,,0.00,VWS V13.01,2013-01-15 22:27:00,
2013-01-15 16:32:00,29.1,22.2,30.22,SW,236,3.6,4.0,75,0.00,,,0.00,VWS V13.01,2013-01-15 22:32:00,
2013-01-15 16:37:00,29.1,22.2,30.22,West,268,2.2,3.1,75,0.00,,,0.00,VWS V13.01,2013-01-15 22:37:00,
2013-01-15 16:42:00,29.1,22.2,30.22,WSW,257,3.1,3.1,75,0.00,,,0.00,VWS V13.01,2013-01-15 22:42:00,
2013-01-15 16:47:00,29.1,22.5,30.22,WSW,242,3.1,3.6,76,0.00,,,0.00,VWS V13.01,2013-01-15 22:47:00,
2013-01-15 16:52:00,29.1,22.5,30.22,WSW,240,4.5,4.9,76,0.00,,,0.00,VWS V13.01,2013-01-15 22:52:00,
2013-01-15 16:57:00,29.1,22.5,30.22,WSW,243,3.6,4.0,76,0.00,,,0.00,VWS V13.01,2013-01-15 22:57:00,
2013-01-15 17:02:00,29.1,22.8,30.22,SW,229,2.7,3.1,77,0.00,,,0.00,VWS V13.01,2013-01-15 23:02:00,
2013-01-15 17:07:00,29.1,22.5,30.22,SSW,213,2.7,3.6,76,0.00,,,0.00,VWS V13.01,2013-01-15 23:07:00,
2013-01-15 17:12:00,29.1,22.8,30.22,WSW,242,3.1,4.9,77,0.00,,,0.00,VWS V13.01,2013-01-15 23:12:00,
2013-01-15 17:17:00,29.1,22.8,30.22,SW,223,4.0,4.0,77,0.00,,,0.00,VWS V13.01,2013-01-15 23:17:00,
2013-01-15 17:22:00,29.1,23.1,30.22,SW,233,4.0,4.0,78,0.00,,,0.00,VWS V13.01,2013-01-15 23:22:00,
2013-01-15 17:27:00,29.1,23.1,30.22,SW,234,4.0,4.0,78,0.00,,,0.00,VWS V13.01,2013-01-15 23:27:00,
2013-01-15 17:32:00,29.1,23.1,30.22,SW,224,2.7,3.6,78,0.00,,,0.00,VWS V13.01,2013-01-15 23:32:00,
2013-01-15 17:37:00,29.1,23.4,30.22,WSW,242,2.7,3.6,79,0.00,,,0.00,VWS V13.01,2013-01-15 23:37:00,
2013-01-15 17:42:00,29.1,23.7,30.22,SW,225,2.7,3.1,80,0.00,,,0.00,VWS V13.01,2013-01-15 23:42:00,
2013-01-15 17:47:00,28.9,23.2,30.22,WSW,239,3.6,5.4,79,0.00,,,0.00,VWS V13.01,2013-01-15 23:47:00,
2013-01-15 17:52:00,28.9,23.5,30.22,SW,235,3.6,4.0,80,0.00,,,0.00,VWS V13.01,2013-01-15 23:52:00,
2013-01-15 17:57:00,28.9,23.8,30.22,SW,233,3.1,3.1,81,0.00,,,0.00,VWS V13.01,2013-01-15 23:57:00,
2013-01-15 18:02:00,28.9,23.8,30.22,SW,236,2.7,3.6,81,0.00,,,0.00,VWS V13.01,2013-01-16 00:02:00,
2013-01-15 18:07:00,28.9,24.1,30.22,WSW,255,2.7,2.7,82,0.00,,,0.00,VWS V13.01,2013-01-16 00:07:00,
2013-01-15 18:12:00,29.1,24.3,30.22,WSW,241,3.6,3.6,82,0.00,,,0.00,VWS V13.01,2013-01-16 00:12:00,
2013-01-15 18:17:00,29.1,24.3,30.22,SW,229,2.7,2.7,82,0.00,,,0.00,VWS V13.01,2013-01-16 00:17:00,
2013-01-15 18:22:00,29.1,24.3,30.22,WSW,242,4.0,4.0,82,0.00,,,0.00,VWS V13.01,2013-01-16 00:22:00,
2013-01-15 18:27:00,29.1,24.3,30.22,SW,222,3.1,3.1,82,0.00,,,0.00,VWS V13.01,2013-01-16 00:27:00,
2013-01-15 18:32:00,29.1,24.3,30.22,SW,228,2.7,2.7,82,0.00,,,0.00,VWS V13.01,2013-01-16 00:32:00,
2013-01-15 18:37:00,29.1,24.3,30.22,SW,235,0.0,0.0,82,0.00,,,0.00,VWS V13.01,2013-01-16 00:37:00,
2013-01-15 18:42:00,29.1,24.3,30.22,SSW,193,2.2,2.2,82,0.00,,,0.00,VWS V13.01,2013-01-16 00:42:00,
2013-01-15 18:47:00,29.1,24.3,30.19,SSW,195,0.0,0.0,82,0.00,,,0.00,VWS V13.01,2013-01-16 00:47:00,
2013-01-15 18:52:00,29.1,24.6,30.19,South,170,0.0,0.0,83,0.00,,,0.00,VWS V13.01,2013-01-16 00:52:00,
2013-01-15 18:57:00,29.1,24.6,30.19,South,170,0.0,0.0,83,0.00,,,0.00,VWS V13.01,2013-01-16 00:57:00,
2013-01-15 19:02:00,29.1,24.6,30.19,South,175,0.0,0.0,83,0.00,,,0.00,VWS V13.01,2013-01-16 01:02:00,
2013-01-15 19:07:00,29.1,24.6,30.19,South,175,0.0,0.0,83,0.00,,,0.00,VWS V13.01,2013-01-16 01:07:00,
2013-01-15 19:12:00,29.1,24.6,30.19,South,175,0.0,0.0,83,0.00,,,0.00,VWS V13.01,2013-01-16 01:12:00,
2013-01-15 19:17:00,29.1,24.6,30.19,South,175,0.0,0.0,83,0.00,,,0.00,VWS V13.01,2013-01-16 01:17:00,
2013-01-15 19:22:00,29.1,24.6,30.19,South,175,0.0,0.0,83,0.00,,,0.00,VWS V13.01,2013-01-16 01:22:00,
2013-01-15 19:27:00,29.1,24.6,30.19,South,172,3.6,3.6,83,0.00,,,0.00,VWS V13.01,2013-01-16 01:27:00,
2013-01-15 19:32:00,29.3,25.1,30.19,SSE,154,0.0,0.0,84,0.00,,,0.00,VWS V13.01,2013-01-16 01:32:00,
2013-01-15 19:37:00,29.1,24.9,30.19,SSE,168,0.0,0.0,84,0.00,,,0.00,VWS V13.01,2013-01-16 01:37:00,
2013-01-15 19:42:00,29.1,24.9,30.19,SSE,150,0.0,0.0,84,0.00,,,0.00,VWS V13.01,2013-01-16 01:42:00,
2013-01-15 19:47:00,29.1,24.9,30.19,South,170,0.0,0.0,84,0.00,,,0.00,VWS V13.01,2013-01-16 01:47:00,
2013-01-15 19:52:00,29.1,24.9,30.19,South,170,0.0,0.0,84,0.00,,,0.00,VWS V13.01,2013-01-16 01:52:00,
2013-01-15 19:57:00,29.1,24.9,30.19,SSE,164,0.0,0.0,84,0.00,,,0.00,VWS V13.01,2013-01-16 01:57:00,
2013-01-15 20:02:00,28.9,24.7,30.19,South,177,0.0,0.0,84,0.00,,,0.00,VWS V13.01,2013-01-16 02:02:00,
2013-01-15 20:07:00,28.9,24.4,30.19,South,174,0.0,0.0,83,0.00,,,0.00,VWS V13.01,2013-01-16 02:07:00,
2013-01-15 20:12:00,28.9,24.4,30.19,SSE,154,0.0,0.0,83,0.00,,,0.00,VWS V13.01,2013-01-16 02:12:00,
2013-01-15 20:17:00,28.9,24.7,30.19,South,179,0.0,2.2,84,0.00,,,0.00,VWS V13.01,2013-01-16 02:17:00,
2013-01-15 20:22:00,28.7,24.2,30.19,South,179,0.0,0.0,83,0.00,,,0.00,VWS V13.01,2013-01-16 02:22:00,
2013-01-15 20:27:00,28.7,24.2,30.19,South,179,0.0,0.0,83,0.00,,,0.00,VWS V13.01,2013-01-16 02:27:00,
2013-01-15 20:32:00,28.6,24.4,30.19,South,169,0.0,0.0,84,0.00,,,0.00,VWS V13.01,2013-01-16 02:32:00,
2013-01-15 20:37:00,28.6,24.4,30.19,South,169,0.0,0.0,84,0.00,,,0.00,VWS V13.01,2013-01-16 02:37:00,
2013-01-15 20:42:00,28.4,24.2,30.19,South,169,0.0,0.0,84,0.00,,,0.00,VWS V13.01,2013-01-16 02:42:00,
2013-01-15 20:47:00,28.4,24.2,30.22,SSW,213,0.0,0.0,84,0.00,,,0.00,VWS V13.01,2013-01-16 02:47:00,
2013-01-15 20:52:00,28.6,24.6,30.22,SW,232,0.0,0.0,85,0.00,,,0.00,VWS V13.01,2013-01-16 02:52:00,
2013-01-15 20:57:00,28.6,24.6,30.22,SW,224,0.0,0.0,85,0.00,,,0.00,VWS V13.01,2013-01-16 02:57:00,
2013-01-15 21:02:00,28.7,25.1,30.22,SW,222,4.0,4.0,86,0.00,,,0.00,VWS V13.01,2013-01-16 03:02:00,
2013-01-15 21:06:00,28.7,24.8,30.22,SW,229,4.9,4.9,85,0.00,,,0.00,VWS V13.01,2013-01-16 03:06:00,
2013-01-15 21:11:00,28.7,24.8,30.22,SW,225,3.6,4.0,85,0.00,,,0.00,VWS V13.01,2013-01-16 03:11:00,
2013-01-15 21:16:00,28.7,24.8,30.22,SW,225,3.1,3.1,85,0.00,,,0.00,VWS V13.01,2013-01-16 03:16:00,
2013-01-15 21:21:00,28.7,24.8,30.22,SSW,211,2.7,2.7,85,0.00,,,0.00,VWS V13.01,2013-01-16 03:21:00,
2013-01-15 21:26:00,28.7,24.5,30.22,WSW,258,3.1,3.6,84,0.00,,,0.00,VWS V13.01,2013-01-16 03:26:00,
2013-01-15 21:31:00,28.7,24.5,30.22,SW,233,3.1,3.1,84,0.00,,,0.00,VWS V13.01,2013-01-16 03:31:00,
2013-01-15 21:36:00,28.7,24.5,30.22,WSW,246,2.7,3.6,84,0.00,,,0.00,VWS V13.01,2013-01-16 03:36:00,
2013-01-15 21:41:00,28.7,24.5,30.22,WSW,239,3.1,3.1,84,0.00,,,0.00,VWS V13.01,2013-01-16 03:41:00,
2013-01-15 21:46:00,28.7,24.8,30.22,WSW,239,3.6,3.6,85,0.00,,,0.00,VWS V13.01,2013-01-16 03:46:00,
2013-01-15 21:51:00,28.9,25.0,30.22,WSW,241,3.1,3.6,85,0.00,,,0.00,VWS V13.01,2013-01-16 03:51:00,
2013-01-15 21:56:00,28.9,25.0,30.22,WSW,252,4.0,5.4,85,0.00,,,0.00,VWS V13.01,2013-01-16 03:56:00,
2013-01-15 22:01:00,28.9,25.0,30.19,SW,234,3.1,3.1,85,0.00,,,0.00,VWS V13.01,2013-01-16 04:01:00,
2013-01-15 22:06:00,28.9,25.0,30.19,WSW,256,0.0,2.2,85,0.00,,,0.00,VWS V13.01,2013-01-16 04:06:00,
2013-01-15 22:11:00,28.9,25.0,30.19,WSW,256,0.0,0.0,85,0.00,,,0.00,VWS V13.01,2013-01-16 04:11:00,
2013-01-15 22:16:00,28.9,25.0,30.19,WSW,256,0.0,0.0,85,0.00,,,0.00,VWS V13.01,2013-01-16 04:16:00,
2013-01-15 22:21:00,28.9,25.0,30.19,WSW,256,0.0,0.0,85,0.00,,,0.00,VWS V13.01,2013-01-16 04:21:00,
2013-01-15 22:26:00,28.9,25.0,30.19,WSW,256,0.0,0.0,85,0.00,,,0.00,VWS V13.01,2013-01-16 04:26:00,
2013-01-15 22:31:00,28.7,24.8,30.19,WSW,256,0.0,0.0,85,0.00,,,0.00,VWS V13.01,2013-01-16 04:31:00,
2013-01-15 22:36:00,28.4,24.5,30.19,WSW,256,0.0,0.0,85,0.00,,,0.00,VWS V13.01,2013-01-16 04:36:00,
2013-01-15 22:41:00,28.2,24.3,30.19,WSW,256,0.0,0.0,85,0.00,,,0.00,VWS V13.01,2013-01-16 04:41:00,
2013-01-15 22:46:00,28.0,24.1,30.19,WSW,256,0.0,0.0,85,0.00,,,0.00,VWS V13.01,2013-01-16 04:46:00,
2013-01-15 22:51:00,28.0,24.4,30.19,SSW,200,0.0,0.0,86,0.00,,,0.00,VWS V13.01,2013-01-16 04:51:00,
2013-01-15 22:56:00,27.8,24.5,30.19,SSW,193,0.0,0.0,87,0.00,,,0.00,VWS V13.01,2013-01-16 04:56:00,
2013-01-15 23:00:00,27.7,24.3,30.19,SW,214,0.0,0.0,87,0.00,,,0.00,VWS V13.01,2013-01-16 05:00:00,
2013-01-15 23:03:00,27.7,24.3,30.19,WSW,240,2.7,2.7,87,0.00,,,0.00,VWS V13.01,2013-01-16 05:03:00,
2013-01-15 23:08:00,27.5,24.1,30.19,WSW,240,0.0,0.0,87,0.00,,,0.00,VWS V13.01,2013-01-16 05:08:00,
2013-01-15 23:13:00,27.5,24.4,30.16,WSW,240,0.0,0.0,88,0.00,,,0.00,VWS V13.01,2013-01-16 05:13:00,
2013-01-15 23:18:00,27.5,24.7,30.16,WSW,258,0.0,0.0,89,0.00,,,0.00,VWS V13.01,2013-01-16 05:18:00,
2013-01-15 23:23:00,27.5,24.9,30.16,WSW,258,0.0,0.0,90,0.00,,,0.00,VWS V13.01,2013-01-16 05:23:00,
2013-01-15 23:28:00,27.5,24.9,30.16,WSW,258,0.0,0.0,90,0.00,,,0.00,VWS V13.01,2013-01-16 05:28:00,
2013-01-15 23:33:00,27.3,24.8,30.16,WSW,258,0.0,0.0,90,0.00,,,0.00,VWS V13.01,2013-01-16 05:33:00,
2013-01-15 23:38:00,27.1,24.6,30.16,WSW,258,0.0,0.0,90,0.00,,,0.00,VWS V13.01,2013-01-16 05:38:00,
2013-01-15 23:43:00,26.9,24.1,30.16,WSW,258,0.0,0.0,89,0.00,,,0.00,VWS V13.01,2013-01-16 05:43:00,
2013-01-15 23:48:00,26.8,24.0,30.16,WSW,258,0.0,0.0,89,0.00,,,0.00,VWS V13.01,2013-01-16 05:48:00,
2013-01-15 23:53:00,26.6,23.8,30.16,WSW,258,0.0,0.0,89,0.00,,,0.00,VWS V13.01,2013-01-16 05:53:00,
2013-01-15 23:58:00,26.6,24.0,30.16,WSW,258,0.0,0.0,90,0.00,,,0.00,VWS V13.01,2013-01-16 05:58:00,